Notices

What's New in latest Release from April 7th, 2021:

- Updated Glossary, including Speed of Maximum Gust, and Total Hourly Precipitation

- Updated national and regional climate services offices contacts and prices information

- Addition of station inventory lists for 1981-2010, 1971-2000, and 1961-1990 Normals.

If you haven't already, please take our survey and provide feedback about our website: https://eccc.sondage-survey.ca/f/LanguageSelection.aspx?s=442ca660-fcf1-47c0-95a9-59707d6fd709

Hourly Data Report for September 02, 2019

TORONTO CITY
ONTARIO
Current Station Operator: ECCC - MSC

43°40'00.000" N
79°24'00.000" W
112.50 m
6158355
71508
XTO

Download Data

Hourly Data (September 2019)
Hourly Data Report for September 2, 2019
TIME
LST
Temp Definition
°C
Dew Point Definition
°C
Rel Hum Definition
%
Precip. Amount Definition
mm

Wind Dir Definition
10's deg

Wind Spd Definition
km/h
Visibility Definition
km
Stn Press Definition
kPa
Hmdx Definition


Wind Chill Definition


Weather Definition


00:00 18.5 15.7 84 0.0       100.36     LegendNANA
01:00 18.1 15.6 85 0.0       100.28     LegendNANA
02:00 18.2 15.7 85 0.0       100.27     LegendNANA
03:00 17.6 14.8 84 0.0       100.21     LegendNANA
04:00 17.6 14.0 79 0.0       100.21     LegendNANA
05:00 17.4 13.3 77 0.0       100.19     LegendNANA
06:00 17.4 12.7 73 0.0       100.24     LegendNANA
07:00 17.7 12.9 73 0.0       100.27     LegendNANA
08:00 18.4 12.8 70 0.0       100.28     LegendNANA
09:00 19.7 13.4 67 0.0       100.27     LegendNANA
10:00 21.2 13.2 60 0.0       100.28     LegendNANA
11:00 22.0 13.5 59 0.0       100.27 25   LegendNANA
12:00 22.1 14.2 61 0.0       100.25 26   LegendNANA
13:00 23.2 14.9 60 0.0       100.24 27   LegendNANA
14:00 22.0 14.7 63 0.0       100.20 26   LegendNANA
15:00 22.3 13.9 59 0.0       100.17 26   LegendNANA
16:00 21.9 14.7 64 0.0       100.18 26   LegendNANA
17:00 23.1 14.2 57 0.0       100.17 27   LegendNANA
18:00 22.9 13.3 55 0.0       100.20 26   LegendNANA
19:00 22.0 13.6 59 0.0       100.25 25   LegendNANA
20:00 20.2 13.6 65 0.0       100.28     LegendNANA
21:00 19.4 13.7 70 0.0       100.33     LegendNANA
22:00 19.0 14.0 73 0.0       100.42     LegendNANA
23:00 18.2 14.7 80 0.0       100.40     LegendNANA

Notes on Data Quality.

Legend

  • E = Estimated
  • M = Missing
  • NA = Not Available*
  • [empty] = Indicates an unobserved value
Date modified: